AirNav   Pilot Hours Calculator
 
 1433 users online  

TE45 Buffalo Chips Airpark
Joshua, Texas, USA

GOING TO JOSHUA?


FAA INFORMATION EFFECTIVE 25 FEBRUARY 2021

Location

FAA Identifier: TE45
Lat/Long: 32-28-11.5020N 097-27-55.0720W
32-28.191700N 097-27.917867W
32.4698617,-97.4652978
(estimated)
Elevation: 960 ft. / 293 m (estimated)
Variation: 07E (1985)
From city: 4 miles NE of JOSHUA, TX
Time zone: UTC -6 (UTC -5 during Daylight Saving Time)
Zip code: 76058

Airport Operations

Airport use: Private use. Permission required prior to landing
Activation date: 03/1988
Control tower: no
ARTCC: FORT WORTH CENTER
FSS: FORT WORTH FLIGHT SERVICE STATION
Attendance: UNATNDD
Wind indicator: yes
Segmented circle: no

Airport Communications

WX AWOS-3 at CPT (7 nm S): 119.525 (817-641-4135)
WX AWOS-3 at FWS (10 nm NE): 120.025 (817-426-4172)
WX AWOS-3 at GDJ (18 nm W): 118.925 (817-573-7514)

Nearby radio navigation aids

VOR radial/distance  VOR name  Freq  Var
FUZr204/29.0RANGER VORTAC115.7006E
MQPr111/31.0MILLSAP VORTAC117.7009E
TTTr216/32.2MAVERICK VOR/DME113.1006E
CVEr222/37.9COWBOY VOR/DME116.2006E

Airport Services

Runway Information

Runway 17/35

Dimensions: 5400 x 100 ft. / 1646 x 30 m
Surface: turf
RUNWAY 17  RUNWAY 35
Traffic pattern: leftleft
Displaced threshold: 500 ft.500 ft.
Obstructions: 25 ft. plines, marked and lighted, 100 ft. from runway25 ft. plines, marked and lighted, 100 ft. from runway

Airport Ownership and Management from official FAA records

Ownership: Privately-owned
Owner: ALAN SPARKS
BOX 1456
JOSHUA, TX 76058
Phone 817-558-7715
Manager: ALAN SPARKS
BOX 1456
JOSHUA, TX 76058
Phone 817-558-7715

Airport Operational Statistics

Aircraft based on the field: 31
Single engine airplanes: 8
Multi engine airplanes: 2
Jet airplanes: 3
Helicopters: 18
    

Additional Remarks

FOR CD CTC REGIONAL APCH AT 972-615-2799.

Instrument Procedures

There are no published instrument procedures at TE45.

Some nearby airports with instrument procedures:

KCPT - Cleburne Regional Airport (7 nm S)
50F - Bourland Field Airport (9 nm NW)
KFWS - Fort Worth Spinks Airport (10 nm NE)
KGDJ - Granbury Regional Airport (18 nm W)
KNFW - Fort Worth Naval Air Station JRB (Carswell Field) Airport (18 nm N)
KWEA - Parker County Airport (20 nm NW)
 
Loc | Ops | Rwys | IFR | FBO | Links
Com | Nav | Svcs | Stats | Notes

City of Fort Worth
 
Area around TE45 (Buffalo Chips Airpark)
 
Road maps at: MapQuest Bing Google
 
Aerial photo
No photo
 
Sectional chart

 
Airport distance calculator
Flying to Buffalo Chips Airpark? Find the distance to fly.

From to TE45

Sunrise and sunset
Times for 05-Mar-2021
 Local
(UTC-6)
 Zulu
(UTC)
Morning civil twilight06:2912:29
Sunrise06:5412:54
Sunset18:2900:29
Evening civil twilight18:5400:54

Current date and time
Zulu (UTC)  05-Mar-2021 17:06:34
Local (UTC-6)  05-Mar-2021 11:06:34
 
METAR
KCPT 
7nm S 
051655Z AUTO 30015KT 10SM CLR 18/05 A2996 RMK A01
KFWS 
10nm NE 
051649Z 28010G16KT 10SM CLR 18/06 A2996
KNFW 
18nm N 
051652Z 30010KT 10SM FEW150 19/04 A2994 RMK AO2 SLP123 T01940044 $
KGDJ 
18nm W 
AWOS-3 118.925 817-573-7514
051635Z AUTO 32015G21KT 10SM CLR 19/04 A2997 RMK AO2 T01890042
TAF
KNFW 
18nm N 
0512/0607 17009KT 9999 SKC QNH2984INS BECMG 0520/0522 34020G30KT 9999 BKN030 BKN050 510008 QNH2994INS BECMG 0601/0603 02010KT 9999 BKN015 BKN020 QNH3015INS T11/0512Z T20/0521Z AMD 1236 FN20048
KGKY 
22nm NE 
051135Z 0512/0612 18010KT P6SM SCT015 TEMPO 0512/0514 BKN015 FM051800 28008KT P6SM SCT080 FM052000 02015KT P6SM SCT060 FM052300 01016KT P6SM BKN029 FM060700 02010KT P6SM SCT029 BKN050
NOTAMs
Click for the latest NOTAMs
NOTAMs are issued by the DoD/FAA and will open in a separate window not controlled by AirNav.

 

 
 

Would you like to see your business listed on this page?

 If your business provides an interesting product or service to pilots, flight crews, aircraft, or users of the Buffalo Chips Airpark, you should consider listing it here.  To start the listing process, click on the button below
 
Add a business
 

Other Pages about Buffalo Chips Airpark

Update a link
 
Copyright © AirNav, LLC. All rights reserved. Privacy Policy  Contact